Location: Meanaryar
(48.4161°N, 4.7315°W)
Time: 06:31:11
(UTC+00:00)

NOSS 8 (E) - Pass Details

Date: 18 September 2020
Orbit: 385 x 1787 km, 63.3° (Epoch: 23 October)

Event Time Altitude Azimuth Distance (km) Brightness Sun altitude
Rises 19:06:37 0° 221° (SW) 2,486 8.6 -7.8°
Reaches altitude 10° 19:08:50 10° 222° (SW) 1,514 7.5 -8.1°
Maximum altitude 19:12:02 85° 310° (NW) 400 4.2 -8.7°
Drops below altitude 10° 19:15:03 10° 40° (NE) 1,425 6.7 -9.1°
Sets 19:17:05 0° 41° (NE) 2,320 7.7 -9.5°
